Hourly Data Report for October 16, 2015

All times are specified in Local Standard Time (LST). Add 1 hour to adjust for Daylight Saving Time where and when it is observed.

CLYDE RIVER A
NUNAVUT

70°29'09.000" N
68°31'01.000" W
26.50 m
2400804
71090
YCY

Download Data

Hourly Data (October 2015)
Hourly Data Report for October 16, 2015
Temp Definition
°C
Dew Point Temp Definition
°C
Rel Hum Definition
%
Wind Dir Definition
10's deg

Wind Spd Definition
km/h
Visibility Definition
km
Stn Press Definition
kPa
Hmdx Definition


Wind Chill Definition


Weather Definition


TIME
00:00 Legend Double Dagger -3.2 -6.0 81 22 26 16.1 98.90   -10 LegendNANA
01:00 Legend Double Dagger -3.6 -7.6 74 23 18 16.1 98.94   -9 LegendNANA
02:00 Legend Double Dagger -4.2 -7.5 78 21 24 16.1 98.97   -11 LegendNANA
03:00 Legend Double Dagger -2.7 -8.8 63 24 21 16.1 99.01   -9 LegendNANA
04:00 Legend Double Dagger -4.6 -9.4 69 20 8 16.1 99.07   -8 LegendNANA
05:00 Legend Double Dagger -8.1 -11.9 74 3 9 16.1 99.15   -13 LegendNANA
06:00 Legend Double Dagger -6.3 -11.7 66 28 17 16.1 99.20   -13 LegendNANA
07:00 Legend Double Dagger -10.8 -14.1 77 31 11 16.1 99.26   -17 LegendNANA
08:00 Legend Double Dagger -8.8 -13.2 71 31 9 16.1 99.31   -13 LegendNANA
09:00 Legend Double Dagger -7.5 -12.1 70 25 9 16.1 99.37   -12 LegendNANA
10:00 Legend Double Dagger -7.7 -12.8 67 28 15 16.1 99.41   -14 LegendNANA
11:00 Legend Double Dagger -8.3 -13.2 68 25 8 16.1 99.43   -12 LegendNANA
12:00 Legend Double Dagger -9.6 -13.6 73 28 13 16.1 99.47   -16 LegendNANA
13:00 Legend Double Dagger -8.8 -13.4 70 29 11 16.1 99.52   -14 LegendNANA
14:00 Legend Double Dagger -9.5 -13.8 71 32 5 16.1 99.58   -12 LegendNANA
15:00 Legend Double Dagger -9.6 -14.7 67 29 9 16.1 99.63   -14 LegendNANA
16:00 Legend Double Dagger -10.8 -14.7 73 27 5 16.1 99.67   -14 LegendNANA
17:00 Legend Double Dagger -12.1 -15.2 78 29 13 16.1 99.71   -19 LegendNANA
18:00 Legend Double Dagger -9.8 -13.9 72 26 11 16.1 99.77   -15 LegendNANA
19:00 Legend Double Dagger -9.5 -13.6 73 28 17 16.1 99.81   -17 LegendNANA
20:00 Legend Double Dagger -9.2 -12.7 76 24 11 16.1 99.84   -15 LegendNANA
21:00 Legend Double Dagger -8.6 -12.4 74 25 9 16.1 99.85   -13 LegendNANA
22:00 Legend Double Dagger -8.2 -13.3 67 26 15 16.1 99.85   -15 LegendNANA
23:00 Legend Double Dagger -10.1 -13.5 76 26 15 16.1 99.88   -17 LegendNANA

Notes on Data Quality.

Legend

  • E = Estimated
  • M = Missing
  • NA = Not Available
  • ‡ = Partner data that is not subject to review by the National Climate Archives
Date modified: